Hauptseite
METAR-TAF:

METAR-TAF

Flughäfen :

Bohrplattform

Awg-1, Niederlande

Breite: 53-29-30N, Länge: 5-56-30E, Höhe: 33 m

Beobachtung

Neuester Wetterbericht von vor 18 Minuten, um 22:55 UTC
Wind 30 kt aus Süd
Temperatur 5°C
Luftfeuchtigkeit 93%
Luftdruck 993 hPa
Sichtweite 10 km oder mehr
Leicht bewölkt in der Höhe von 2600 ft

METAR: EHMA 122255Z AUTO 19030KT 9999 FEW026 05/04 Q0993 W///H///

Zeit: 00:13 (23:13 UTC)


TAF: fehlend

Wetterbeobachtungen und Prognosen von mehr als 4000 Flughäfen (METAR und TAF Bericht).

Die verfügbaren Stationen werden durch gelbe und rote Markierungen auf der Karte dargestellt.

Führen Sie die Maus auf sie, um den Namen der Station zu sehen.

Darauf klicken, um die Beobachtung von Wetterbeobachtungen und Prognosen zu sehen.

Um die Karte zu ändern : klicken Sie auf den grünen Tasten mit einem schwarzen Kreuz Zum Vergrößern, auf den grünen Button mit einem Gedankenstrich zu verkleinern, oder auf die grünen Pfeile für benachbarte Karten.


METAR-TAF: